• In Belgium
  • List of Countries
  • For 7 days
  • Water Temperature
  • Satellite Maps
  • Weather Map
  • Weather Widgets
  • user-avatar
    Login

    Hourly Weather Konstantyna

    Today, 24 November, Friday

    Time Temperature Precipitation Wind Pressure Humidity
    00:00 +10°C° 0 mm 1 mps 713 mmHg 53%
    01:00 +10°C° 0 mm 1 mps 713 mmHg 53%
    02:00 +9°C° 0 mm 1 mps 712 mmHg 53%
    03:00 +9°C° 0 mm 1 mps 712 mmHg 52%
    04:00 +9°C° 0 mm 1 mps 712 mmHg 52%
    05:00 +9°C° 0 mm 1 mps 712 mmHg 52%
    06:00 +8°C° 0 mm 1 mps 713 mmHg 52%
    07:00 +11°C° 0 mm 1 mps 713 mmHg 47%
    08:00 +13°C° 0 mm 1 mps 714 mmHg 42%
    09:00 +15°C° 0 mm 1 mps 714 mmHg 36%
    10:00 +16°C° 0 mm 1 mps 714 mmHg 32%
    11:00 +18°C° 0 mm 1 mps 714 mmHg 28%
    12:00 +17°C° 0 mm 0 mps 714 mmHg 24%
    13:00 +18°C° 0 mm 0 mps 714 mmHg 25%
    14:00 +20°C° 0 mm 1 mps 714 mmHg 27%
    15:00 +20°C° 0 mm 1 mps 714 mmHg 28%
    16:00 +18°C° 0 mm 1 mps 713 mmHg 32%
    17:00 +14°C° 0 mm 0 mps 713 mmHg 36%
    18:00 +12°C° 0 mm 0 mps 713 mmHg 40%
    19:00 +13°C° 0 mm 1 mps 713 mmHg 38%
    20:00 +12°C° 0 mm 1 mps 713 mmHg 37%
    21:00 +12°C° 0 mm 1 mps 713 mmHg 36%
    22:00 +12°C° 0 mm 1 mps 713 mmHg 35%
    23:00 +12°C° 0 mm 2 mps 713 mmHg 34%

    Tomorrow, 25 November, Saturday

    Time Temperature Precipitation Wind Pressure Humidity
    00:00 +12°C° 0 mm 2 mps 713 mmHg 33%
    01:00 +12°C° 0 mm 2 mps 713 mmHg 32%
    02:00 +12°C° 0 mm 2 mps 712 mmHg 32%
    03:00 +10°C° 0 mm 2 mps 712 mmHg 32%
    04:00 +10°C° 0 mm 2 mps 712 mmHg 32%
    05:00 +10°C° 0 mm 2 mps 712 mmHg 32%
    06:00 +10°C° 0 mm 2 mps 712 mmHg 32%
    07:00 +13°C° 0 mm 2 mps 713 mmHg 31%
    08:00 +15°C° 0 mm 2 mps 713 mmHg 30%
    09:00 +17°C° 0 mm 2 mps 713 mmHg 29%
    10:00 +18°C° 0 mm 2 mps 713 mmHg 26%
    11:00 +19°C° 0 mm 2 mps 713 mmHg 24%
    12:00 +21°C° 0 mm 2 mps 713 mmHg 21%
    13:00 +21°C° 0 mm 2 mps 713 mmHg 23%
    14:00 +20°C° 0 mm 2 mps 712 mmHg 26%
    15:00 +20°C° 0 mm 2 mps 712 mmHg 28%
    16:00 +18°C° 0 mm 2 mps 712 mmHg 32%
    17:00 +16°C° 0 mm 2 mps 712 mmHg 36%
    18:00 +14°C° 0 mm 1 mps 712 mmHg 39%
    19:00 +14°C° 0 mm 1 mps 712 mmHg 40%
    20:00 +13°C° 0 mm 1 mps 712 mmHg 41%
    21:00 +13°C° 0 mm 1 mps 713 mmHg 42%
    22:00 +13°C° 0 mm 1 mps 713 mmHg 42%
    23:00 +12°C° 0 mm 1 mps 713 mmHg 43%

    Day after tomorrow, 26 November, Sunday

    Time Temperature Precipitation Wind Pressure Humidity
    00:00 +12°C° 0 mm 1 mps 713 mmHg 43%
    01:00 +12°C° 0 mm 1 mps 712 mmHg 42%
    02:00 +11°C° 0 mm 1 mps 712 mmHg 42%
    03:00 +11°C° 0 mm 1 mps 712 mmHg 42%
    04:00 +11°C° 0 mm 1 mps 712 mmHg 43%
    05:00 +11°C° 0 mm 1 mps 712 mmHg 44%
    06:00 +10°C° 0 mm 1 mps 712 mmHg 44%
    07:00 +12°C° 0 mm 1 mps 713 mmHg 44%
    08:00 +13°C° 0 mm 1 mps 714 mmHg 44%
    09:00 +15°C° 0 mm 1 mps 714 mmHg 43%
    10:00 +15°C° 0 mm 2 mps 714 mmHg 46%
    11:00 +16°C° 0 mm 2 mps 714 mmHg 48%
    12:00 +17°C° 0 mm 2 mps 714 mmHg 50%
    13:00 +16°C° 0.1 mm 3 mps 714 mmHg 55%
    14:00 +14°C° 0.1 mm 3 mps 714 mmHg 61%
    15:00 +14°C° 0.1 mm 3 mps 714 mmHg 66%
    16:00 +13°C° 0.3 mm 3 mps 714 mmHg 74%
    17:00 +12°C° 0.3 mm 3 mps 715 mmHg 82%
    18:00 +11°C° 0.3 mm 3 mps 715 mmHg 89%
    19:00 +10°C° 0.1 mm 3 mps 716 mmHg 88%
    20:00 +10°C° 0.1 mm 3 mps 716 mmHg 87%
    21:00 +10°C° 0.1 mm 3 mps 716 mmHg 86%
    22:00 +9°C° 0.1 mm 3 mps 716 mmHg 84%
    23:00 +9°C° 0.1 mm 3 mps 716 mmHg 83%

    27 November, Monday

    Time Temperature Precipitation Wind Pressure Humidity
    00:00 +9°C° 0.1 mm 3 mps 716 mmHg 82%
    01:00 +9°C° 0.1 mm 3 mps 716 mmHg 82%
    02:00 +8°C° 0.1 mm 2 mps 716 mmHg 82%
    03:00 +8°C° 0.1 mm 2 mps 716 mmHg 82%
    04:00 +7°C° 0 mm 2 mps 716 mmHg 83%
    05:00 +7°C° 0 mm 2 mps 716 mmHg 84%
    06:00 +6°C° 0 mm 2 mps 716 mmHg 85%
    07:00 +7°C° 0 mm 2 mps 717 mmHg 80%
    08:00 +8°C° 0 mm 2 mps 717 mmHg 75%
    09:00 +9°C° 0 mm 2 mps 717 mmHg 69%
    10:00 +9°C° 0 mm 3 mps 717 mmHg 68%
    11:00 +9°C° 0 mm 3 mps 717 mmHg 66%
    12:00 +10°C° 0 mm 3 mps 716 mmHg 65%
    13:00 +10°C° 0 mm 2 mps 716 mmHg 64%
    14:00 +10°C° 0 mm 2 mps 716 mmHg 64%
    15:00 +10°C° 0 mm 2 mps 716 mmHg 63%
    16:00 +9°C° 0 mm 2 mps 715 mmHg 67%
    17:00 +9°C° 0 mm 1 mps 715 mmHg 71%
    18:00 +8°C° 0 mm 1 mps 715 mmHg 75%
    19:00 +8°C° 0 mm 1 mps 715 mmHg 77%
    20:00 +7°C° 0 mm 1 mps 715 mmHg 78%
    21:00 +7°C° 0 mm 1 mps 715 mmHg 80%
    22:00 +7°C° 0 mm 1 mps 715 mmHg 80%
    23:00 +6°C° 0 mm 1 mps 715 mmHg 80%

    28 November, Tuesday

    Time Temperature Precipitation Wind Pressure Humidity
    00:00 +6°C° 0 mm 1 mps 714 mmHg 81%
    01:00 +6°C° 0 mm 1 mps 714 mmHg 81%
    02:00 +6°C° 0 mm 1 mps 713 mmHg 80%
    03:00 +6°C° 0 mm 1 mps 713 mmHg 80%
    04:00 +5°C° 0 mm 1 mps 713 mmHg 80%
    05:00 +5°C° 0 mm 1 mps 713 mmHg 79%
    06:00 +5°C° 0 mm 1 mps 713 mmHg 79%
    07:00 +7°C° 0 mm 1 mps 713 mmHg 72%
    08:00 +9°C° 0 mm 1 mps 713 mmHg 64%
    09:00 +10°C° 0 mm 2 mps 713 mmHg 57%
    10:00 +12°C° 0 mm 2 mps 713 mmHg 52%
    11:00 +14°C° 0 mm 2 mps 712 mmHg 47%
    12:00 +15°C° 0 mm 2 mps 712 mmHg 42%
    13:00 +15°C° 0 mm 2 mps 711 mmHg 43%
    14:00 +15°C° 0 mm 2 mps 711 mmHg 45%
    15:00 +16°C° 0 mm 2 mps 710 mmHg 46%
    16:00 +14°C° 0 mm 2 mps 710 mmHg 52%
    17:00 +13°C° 0 mm 2 mps 710 mmHg 58%
    18:00 +11°C° 0 mm 1 mps 710 mmHg 64%
    19:00 +10°C° 0 mm 2 mps 709 mmHg 66%
    20:00 +10°C° 0 mm 2 mps 709 mmHg 68%
    21:00 +9°C° 0 mm 2 mps 709 mmHg 70%
    22:00 +9°C° 0 mm 2 mps 709 mmHg 71%
    23:00 +9°C° 0 mm 2 mps 709 mmHg 73%

    29 November, Wednesday

    Time Temperature Precipitation Wind Pressure Humidity
    00:00 +9°C° 0 mm 2 mps 708 mmHg 74%
    01:00 +9°C° 0 mm 2 mps 708 mmHg 74%
    02:00 +9°C° 0 mm 2 mps 707 mmHg 74%
    03:00 +9°C° 0 mm 2 mps 707 mmHg 74%
    04:00 +9°C° 0 mm 3 mps 707 mmHg 74%
    05:00 +9°C° 0 mm 3 mps 706 mmHg 74%
    06:00 +9°C° 0 mm 3 mps 706 mmHg 74%
    07:00 +11°C° 0 mm 3 mps 706 mmHg 67%
    08:00 +12°C° 0 mm 4 mps 706 mmHg 61%
    09:00 +14°C° 0 mm 4 mps 706 mmHg 55%
    10:00 +16°C° 0 mm 6 mps 706 mmHg 49%
    11:00 +18°C° 0 mm 7 mps 705 mmHg 43%
    12:00 +21°C° 0 mm 8 mps 705 mmHg 37%
    13:00 +21°C° 0 mm 7 mps 704 mmHg 39%
    14:00 +20°C° 0 mm 7 mps 704 mmHg 40%
    15:00 +20°C° 0 mm 6 mps 703 mmHg 42%
    16:00 +17°C° 0 mm 5 mps 704 mmHg 45%
    17:00 +16°C° 0 mm 5 mps 704 mmHg 49%
    18:00 +15°C° 0 mm 4 mps 704 mmHg 52%
    19:00 +14°C° 0 mm 3 mps 704 mmHg 54%
    20:00 +13°C° 0 mm 3 mps 704 mmHg 55%
    21:00 +13°C° 0 mm 3 mps 704 mmHg 56%
    22:00 +13°C° 0 mm 3 mps 704 mmHg 55%
    23:00 +13°C° 0 mm 3 mps 704 mmHg 54%
    Show more